Weather History for Philip, SD

Change the Weather History Date:

Wednesday, March 26, 2014

  Actual Average Record
Temperature  
Mean Temperature 50 °F 39 °F  
Max Temperature 74 °F 52 °F 83 °F (2012)
Min Temperature 25 °F 25 °F 1 °F (1964)
Degree Days  
Heating Degree Days 15 26  
Month to date heating degree days 842 811  
Since 1 July heating degree days 6445 6176  
Cooling Degree Days 0 0  
Month to date cooling degree days 0 0  
Year to date cooling degree days 0 0  
Moisture  
Dew Point 25 °F    
Average Humidity 49    
Maximum Humidity 81    
Minimum Humidity 16    
Precipitation  
Precipitation 0.00 in 0.04 in 0.28 in (1975)
Month to date precipitation 0.45 1.07  
Year to date precipitation 0.93 1.85  
Sea Level Pressure  
Sea Level Pressure 29.45 in    
Wind  
Wind Speed 12 mph (NNE)    
Max Wind Speed 24 mph    
Max Gust Speed 29 mph    
Visibility 10 miles    
Events      
T = Trace of Precipitation, MM = Missing Value Source: NWS Daily Summary

Daily Weather History Graph

Daily Weather History Graph

Search for Another Location

Airport:

Trip Planner

Search our weather history database for the weather conditions in past years. The results will help you decide how hot, cold, wet, or windy it might be!

Date:

Astronomy

Mar. 26, 2014 Rise Set
Actual Time 6:38 AM MDT 7:06 PM MDT
Civil Twilight 6:09 AM MDT 7:35 PM MDT
Nautical Twilight 5:35 AM MDT 8:09 PM MDT
Astronomical Twilight 5:00 AM MDT 8:44 PM MDT
Moon 3:57 AM MDT (3/26) 2:38 PM MDT (3/26)
Length of Visible Light 13h 25m
Length of Day
12h 27m
Waning Crescent, 21% of the Moon is Illuminated
Mar 26
Waning Crescent
Mar 30
New
Apr 7
First Quarter
Apr 15
Full
Apr 22
Last Quarter

Hourly Weather History & Observations

Time (MDT) Temp. Windchill Dew Point Humidity Pressure Visibility Wind Dir Wind Speed Gust Speed Precip Events Conditions
12:55 AM 27.0 °F 18.7 °F 16.0 °F 63% 29.74 in 10.0 mi East 8.1 mph - N/A   Clear
1:55 AM 26.1 °F 17.6 °F 18.0 °F 71% 29.70 in 10.0 mi East 8.1 mph - N/A   Clear
2:55 AM 26.1 °F 18.4 °F 18.0 °F 71% 29.65 in 10.0 mi East 6.9 mph - N/A   Clear
3:55 AM 26.1 °F 18.4 °F 19.0 °F 75% 29.60 in 10.0 mi East 6.9 mph - N/A   Clear
4:55 AM 26.1 °F 18.4 °F 19.9 °F 78% 29.57 in 10.0 mi East 6.9 mph - N/A   Clear
5:55 AM 25.0 °F 18.1 °F 19.9 °F 81% 29.55 in 10.0 mi East 5.8 mph - N/A   Clear
6:55 AM 27.0 °F 21.6 °F 21.0 °F 78% 29.52 in 10.0 mi East 4.6 mph - N/A   Clear
7:55 AM 34.0 °F 31.0 °F 25.0 °F 70% 29.49 in 10.0 mi ESE 3.5 mph - N/A   Clear
8:55 AM 42.1 °F 37.7 °F 26.1 °F 53% 29.47 in 10.0 mi SSE 6.9 mph - N/A   Clear
9:55 AM 52.0 °F - 28.0 °F 40% 29.43 in 10.0 mi SSW 9.2 mph - N/A   Clear
10:55 AM 59.0 °F - 28.9 °F 32% 29.38 in 10.0 mi South 9.2 mph - N/A   Clear
11:55 AM 64.9 °F - 27.0 °F 24% 29.34 in 10.0 mi SW 8.1 mph - N/A   Clear
12:55 PM 71.1 °F - 25.0 °F 18% 29.30 in 10.0 mi SW 13.8 mph 20.7 mph N/A   Clear
1:55 PM 73.0 °F - 25.0 °F 17% 29.26 in 10.0 mi WSW 10.4 mph - N/A   Clear
2:55 PM 70.0 °F - 32.0 °F 25% 29.24 in 10.0 mi NNW 16.1 mph - N/A   Clear
3:55 PM 64.0 °F - 30.9 °F 29% 29.26 in 10.0 mi North 24.2 mph 28.8 mph N/A   Clear
4:55 PM 59.0 °F - 30.9 °F 35% 29.31 in 10.0 mi North 20.7 mph - N/A   Clear
5:55 PM 52.0 °F - 30.0 °F 43% 29.34 in 10.0 mi NNW 18.4 mph - N/A   Clear
6:55 PM 44.1 °F 36.5 °F 28.0 °F 53% 29.38 in 10.0 mi NNW 17.3 mph - N/A   Clear
7:55 PM 42.1 °F 34.9 °F 27.0 °F 55% 29.42 in 10.0 mi NNW 13.8 mph - N/A   Clear
8:55 PM 39.9 °F 32.1 °F 25.0 °F 55% 29.46 in 10.0 mi North 13.8 mph - N/A   Clear
9:55 PM 39.0 °F 31.0 °F 25.0 °F 57% 29.48 in 10.0 mi NNW 13.8 mph - N/A   Scattered Clouds
10:55 PM 37.0 °F 27.7 °F 21.9 °F 54% 29.45 in 10.0 mi NNW 16.1 mph - N/A   Overcast
11:55 PM 36.0 °F 25.6 °F 21.0 °F 55% 29.45 in 10.0 mi North 18.4 mph 26.5 mph N/A   Overcast